User: anonymous   Login
Location: *
(90.0000°N, 180.0000°W)
Time: 03:09:55
(UTC+01:00)
Language:

Cosmos 1825 - Orbit

View from above orbital plane
View from above orbital plane
View from above satellite
View from above satellite

Ground track
Ground track

The orbit data is extracted from the following two-line orbital elements,

1 17566U 87024A   17081.86426033 +.00001015 +00000-0 +47664-4 0  9993
2 17566 082.5077 015.7270 0004794 136.8581 223.3029 15.18512258640452
Epoch (UTC): 22 March 2017 20:44:32
Eccentricity: 0.0004794
inclination: 82.5077°
perigee height: 507 km
apogee height: 513 km
right ascension of ascending node: 15.7270°
argument of perigee: 136.8581°
revolutions per day: 15.18512258
mean anomaly at epoch: 223.3029°
orbit number at epoch: 64045

The dashed part of the orbit path shows where the satellite is in the earth's shadow,  

DLR